SP9INZ-13 Weather Reports


Display with metric or nautical units.
time (UTC)temp
F
wind
direction
speed
MPH
gust
MPH
rain 1hr
in
rain 24hr
in
rain mn
in
humidity
%
barometer
mb
20260508121610 57 0.0 0.0 0.00 0.00 0.00 83 1024.9
20260508120015 54 0.0 0.0 0.00 0.00 0.00 87 1023.3
20260508114414 55 0.0 0.0 0.00 0.00 0.00 85 1023.7
20260508112818 60 0.0 0.0 0.00 0.00 0.00 80 1024.8
20260508111220 57 0.0 0.0 0.00 0.00 0.00 82 1025.0
20260508105621 57 0.0 0.0 0.00 0.00 0.00 82 1025.4
20260508104023 57 0.0 0.0 0.00 0.00 0.00 83 1026.6
20260508102425 55 0.0 0.0 0.00 0.00 0.00 83 1026.9
20260508100828 58 0.0 0.0 0.00 0.00 0.00 76 1029.6
20260508095230 56 0.0 0.0 0.00 0.00 0.00 68 1029.2
20260508093631 56 0.0 0.0 0.00 0.00 0.00 65 1030.0
20260508092033 55 0.0 0.0 0.00 0.00 0.00 60 1028.2
20260508090435 55 0.0 0.0 0.00 0.00 0.00 54 1026.2
20260508084837 55 0.0 0.0 0.00 0.00 0.00 51 1025.4
20260508083242 53 0.0 0.0 0.00 0.00 0.00 51 1025.4
20260508081642 54 0.0 0.0 0.00 0.00 0.00 53 1026.6
20260508080044 54 0.0 0.0 0.00 0.00 0.00 47 1024.7
20260508074446 53 0.0 0.0 0.00 0.00 0.00 48 1024.7
20260508072847 54 0.0 0.0 0.00 0.00 0.00 47 1025.0
20260508071249 53 0.0 0.0 0.00 0.00 0.00 48 1025.3
20260508065651 53 0.0 0.0 0.00 0.00 0.00 45 1024.2
20260508064053 53 0.0 0.0 0.00 0.00 0.00 45 1024.4
20260508062456 53 0.0 0.0 0.00 0.00 0.00 44 1024.5
20260508060857 53 0.0 0.0 0.00 0.00 0.00 44 1025.0
20260508055259 53 0.0 0.0 0.00 0.00 0.00 45 1025.2
20260508053701 52 0.0 0.0 0.00 0.00 0.00 44 1025.6
20260508052104 54 0.0 0.0 0.00 0.00 0.00 42 1025.1
20260508050506 53 0.0 0.0 0.00 0.00 0.00 39 1023.9
20260508044907 53 0.0 0.0 0.00 0.00 0.00 42 1025.5
20260508043309 53 0.0 0.0 0.00 0.00 0.00 41 1027.8
20260508041711 53 0.0 0.0 0.00 0.00 0.00 39 1025.1
20260508040113 55 0.0 0.0 0.00 0.00 0.00 39 1024.0
20260508034515 53 0.0 0.0 0.00 0.00 0.00 37 1022.3
20260508032917 53 0.0 0.0 0.00 0.00 0.00 37 1022.1
20260508031319 53 0.0 0.0 0.00 0.00 0.00 33 1021.9
20260508025721 54 0.0 0.0 0.00 0.00 0.00 25 1022.8
20260508024124 54 0.0 0.0 0.00 0.00 0.00 28 1023.4
20260508022525 54 0.0 0.0 0.00 0.00 0.00 28 1023.4
20260508020927 54 0.0 0.0 0.00 0.00 0.00 28 1023.4
20260508015330 54 0.0 0.0 0.00 0.00 0.00 28 1023.4
20260508013732 54 0.0 0.0 0.00 0.00 0.00 31 1024.1
20260508012134 54 0.0 0.0 0.00 0.00 0.00 29 1025.3
20260508010536 54 0.0 0.0 0.00 0.00 0.00 38 1024.1
20260508004937 54 0.0 0.0 0.00 0.00 0.00 38 1022.7
20260508003339 56 0.0 0.0 0.00 0.00 0.00 41 1019.8
20260508001741 57 0.0 0.0 0.00 0.00 0.00 57 1018.6
20260508000143 62 0.0 0.0 0.00 0.00 0.00 71 1022.1
20260507234545 63 0.0 0.0 0.00 0.00 0.00 73 1022.7
20260507232948 63 0.0 0.0 0.00 0.00 0.00 73 1022.9
20260507231349 63 0.0 0.0 0.00 0.00 0.00 73 1023.4
20260507225752 63 0.0 0.0 0.00 0.00 0.00 69 1024.4
20260507224154 62 0.0 0.0 0.00 0.00 0.00 63 1024.1
20260507222555 59 0.0 0.0 0.00 0.00 0.00 55 1022.6
20260507220957 59 0.0 0.0 0.00 0.00 0.00 53 1021.6
20260507215400 59 0.0 0.0 0.00 0.00 0.00 49 1020.3
20260507213801 59 0.0 0.0 0.00 0.00 0.00 52 1020.7
20260507212203 57 0.0 0.0 0.00 0.00 0.00 49 1018.8
20260507210604 58 0.0 0.0 0.00 0.00 0.00 50 1018.3
20260507205007 58 0.0 0.0 0.00 0.00 0.00 48 1017.2
20260507203409 60 0.0 0.0 0.00 0.00 0.00 52 1017.4
20260507201811 59 0.0 0.0 0.00 0.00 0.00 53 1017.7
20260507200214 59 0.0 0.0 0.00 0.00 0.00 49 1016.3
20260507194615 57 0.0 0.0 0.00 0.00 0.00 45 1013.9
20260507193016 57 0.0 0.0 0.00 0.00 0.00 43 1012.7
20260507191418 58 0.0 0.0 0.00 0.00 0.00 40 1010.8
20260507185821 57 0.0 0.0 0.00 0.00 0.00 37 1009.9
20260507184222 56 0.0 0.0 0.00 0.00 0.00 47 1010.9
20260507182625 58 0.0 0.0 0.00 0.00 0.00 73 1012.1
20260507181027 63 0.0 0.0 0.00 0.00 0.00 75 1011.5
20260507175429 63 0.0 0.0 0.00 0.00 0.00 77 1011.2
20260507173831 62 0.0 0.0 0.00 0.00 0.00 78 1011.2
20260507172233 63 0.0 0.0 0.00 0.00 0.00 77 1010.1
20260507170635 63 0.0 0.0 0.00 0.00 0.00 74 1010.5
20260507165037 66 0.0 0.0 0.00 0.00 0.00 67 1010.5
20260507163439 67 0.0 0.0 0.00 0.00 0.00 66 1010.1
20260507161841 68 0.0 0.0 0.00 0.00 0.00 66 1010.1
20260507160245 68 0.0 0.0 0.00 0.00 0.00 63 1010.3
20260507154645 69 0.0 0.0 0.00 0.00 0.00 64 1010.3
20260507153048 70 0.0 0.0 0.00 0.00 0.00 63 1010.2
20260507151450 70 0.0 0.0 0.00 0.00 0.00 63 1010.0
20260507145851 69 0.0 0.0 0.00 0.00 0.00 63 1010.2
20260507144253 71 0.0 0.0 0.00 0.00 0.00 59 1010.8
20260507142655 69 0.0 0.0 0.00 0.00 0.00 58 1011.4
20260507141057 71 0.0 0.0 0.00 0.00 0.00 56 1011.1
20260507135459 70 0.0 0.0 0.00 0.00 0.00 58 1011.1
20260507133901 69 0.0 0.0 0.00 0.00 0.00 57 1011.9
20260507132307 69 0.0 0.0 0.00 0.00 0.00 58 1011.6
20260507130705 69 0.0 0.0 0.00 0.00 0.00 58 1011.9
20260507125107 73 0.0 0.0 0.00 0.00 0.00 54 1011.3
20260507123509 71 0.0 0.0 0.00 0.00 0.00 56 1011.9